Climatologie pour Saint-Brevin les Pins
Jour • Résumé pour mars 25, 2017 Système :  Métrique    Anglais   Mixte
« - 1 jour
+ 1 jour »
Jour Semaine Mois Année Personnalisé
  Maximum : Minimum : Moyenne :
Température sous abri : -17.8 °C -13 °C -10.8 °C
Point de rosée : -17.8 °C -14 °C -13.3 °C
Humidité : Humidity % 50 % 75 %
Vitesse du vent : 0 km/h 0 km/h 22.7 km/h
Rafale : 0 km/h - -
Direction :- - ENE
Pression : 0 hPa 34269.7 hPa -
Précipitations : 0 mm    
Historical Graphs
 
 
Tableau de données pour mars 25, 2017
Heure Tempé Pt rosée Pression Vent Vitesse Rafale Humidité Taux pluie (/hr) Soleil
-17.8 °C -17.8 °C 0 hPa Calm     Humidity % 0 mm SolarRadiationWatts/m^2 W/m2 Conditions
00:00 -11.8 °C -12.9 °C 34591.4 hPa East 20.8 km/h 44.1 km/h 87 % 0 mm 0 W/m2
00:05 -11.8 °C -12.8 °C 34591.4 hPa NE 23.3 km/h 44.1 km/h 88 % 0 mm 0 W/m2
00:10 -11.8 °C -12.9 °C 34591.4 hPa ENE 23.3 km/h 33.6 km/h 87 % 0 mm 0 W/m2
00:15 -11.8 °C -12.9 °C 34591.4 hPa ENE 25.9 km/h 36.2 km/h 88 % 0 mm 0 W/m2
00:20 -11.8 °C -12.9 °C 34577.8 hPa East 20.8 km/h 36.2 km/h 88 % 0 mm 0 W/m2
00:25 -11.8 °C -12.9 °C 34577.8 hPa ENE 31.1 km/h 36.2 km/h 88 % 0 mm 0 W/m2
00:30 -11.8 °C -12.9 °C 34577.8 hPa NE 15.6 km/h 38.8 km/h 88 % 0 mm 0 W/m2
00:35 -11.8 °C -12.8 °C 34577.8 hPa ENE 31.1 km/h 38.8 km/h 88 % 0 mm 0 W/m2
00:40 -11.7 °C -12.8 °C 34577.8 hPa ENE 25.9 km/h 46.7 km/h 88 % 0 mm 0 W/m2
00:45 -11.7 °C -12.8 °C 34577.8 hPa East 15.6 km/h 46.7 km/h 87 % 0 mm 0 W/m2
00:50 -11.7 °C -12.8 °C 34577.8 hPa East 33.6 km/h 38.8 km/h 87 % 0 mm 0 W/m2
00:55 -11.6 °C -12.8 °C 34567.7 hPa ENE 36.2 km/h 41.4 km/h 87 % 0 mm 0 W/m2
01:00 -11.6 °C -12.8 °C 34567.7 hPa NE 20.8 km/h 41.4 km/h 87 % 0 mm 0 W/m2
01:05 -11.6 °C -12.8 °C 34567.7 hPa ENE 25.9 km/h 44.1 km/h 87 % 0 mm 0 W/m2
01:10 -11.7 °C -12.8 °C 34567.7 hPa NE 28.5 km/h 54.4 km/h 87 % 0 mm 0 W/m2
01:15 -11.7 °C -12.9 °C 34567.7 hPa ENE 7.7 km/h 54.4 km/h 86 % 0 mm 0 W/m2
01:20 -11.7 °C -12.9 °C 34567.7 hPa NE 12.9 km/h 41.4 km/h 86 % 0 mm 0 W/m2
01:25 -11.7 °C -12.9 °C 34567.7 hPa East 12.9 km/h 46.7 km/h 86 % 0 mm 0 W/m2
01:30 -11.7 °C -12.9 °C 34567.7 hPa East 15.6 km/h 46.7 km/h 86 % 0 mm 0 W/m2
01:35 -11.7 °C -12.9 °C 34567.7 hPa East 18.2 km/h 41.4 km/h 86 % 0 mm 0 W/m2
01:40 -11.7 °C -12.9 °C 34567.7 hPa ENE 10.3 km/h 44.1 km/h 86 % 0 mm 0 W/m2
01:45 -11.7 °C -12.9 °C 34567.7 hPa ENE 12.9 km/h 51.8 km/h 86 % 0 mm 0 W/m2
01:50 -11.7 °C -12.9 °C 34567.7 hPa East 20.8 km/h 51.8 km/h 86 % 0 mm 0 W/m2
01:55 -11.7 °C -12.9 °C 34567.7 hPa ENE 28.5 km/h 44.1 km/h 86 % 0 mm 0 W/m2
02:00 -11.7 °C -12.9 °C 34567.7 hPa East 18.2 km/h 44.1 km/h 86 % 0 mm 0 W/m2
02:05 -11.7 °C -12.9 °C 34567.7 hPa ENE 31.1 km/h 46.7 km/h 86 % 0 mm 0 W/m2
02:10 -11.7 °C -13 °C 34567.7 hPa East 28.5 km/h 46.7 km/h 86 % 0 mm 0 W/m2
02:15 -11.7 °C -13.1 °C 34567.7 hPa ENE 12.9 km/h 38.8 km/h 85 % 0 mm 0 W/m2
02:20 -11.8 °C -13.1 °C 34554.1 hPa East 28.5 km/h 49.2 km/h 85 % 0 mm 0 W/m2
02:25 -11.8 °C -13.1 °C 34554.1 hPa ESE 12.9 km/h 57 km/h 85 % 0 mm 0 W/m2
02:30 -11.8 °C -13.1 °C 34554.1 hPa East 20.8 km/h 59.5 km/h 85 % 0 mm 0 W/m2
02:35 -11.8 °C -13.2 °C 34554.1 hPa ENE 38.8 km/h 59.5 km/h 85 % 0 mm 0 W/m2
02:40 -11.8 °C -13.2 °C 34554.1 hPa ENE 28.5 km/h 41.4 km/h 85 % 0 mm 0 W/m2
02:45 -11.8 °C -13.2 °C 34554.1 hPa East 23.3 km/h 46.7 km/h 85 % 0 mm 0 W/m2
02:50 -11.9 °C -13.2 °C 34554.1 hPa East 33.6 km/h 57 km/h 85 % 0 mm 0 W/m2
02:55 -11.8 °C -13.2 °C 34554.1 hPa East 20.8 km/h 64.7 km/h 85 % 0 mm 0 W/m2
03:00 -11.9 °C -13.2 °C 34554.1 hPa East 25.9 km/h 64.7 km/h 85 % 0 mm 0 W/m2
03:05 -11.9 °C -13.2 °C 34554.1 hPa East 25.9 km/h 46.7 km/h 86 % 0 mm 0 W/m2
03:10 -11.9 °C -13.2 °C 34554.1 hPa NE 25.9 km/h 57 km/h 86 % 0 mm 0 W/m2
03:15 -11.9 °C -13.2 °C 34554.1 hPa East 28.5 km/h 57 km/h 86 % 0 mm 0 W/m2
03:20 -11.9 °C -13.2 °C 34544 hPa East 15.6 km/h 51.8 km/h 86 % 0 mm 0 W/m2
03:25 -12.1 °C -13.3 °C 34544 hPa East 28.5 km/h 51.8 km/h 86 % 0 mm 0 W/m2
03:30 -12.1 °C -13.2 °C 34544 hPa ENE 20.8 km/h 46.7 km/h 87 % 0 mm 0 W/m2
03:35 -12.2 °C -13.4 °C 34544 hPa ENE 12.9 km/h 46.7 km/h 87 % 0 mm 0 W/m2
03:40 -12.3 °C -13.4 °C 34533.8 hPa East 18.2 km/h 46.7 km/h 87 % 0 mm 0 W/m2
03:45 -12.4 °C -13.4 °C 34533.8 hPa NE 12.9 km/h 46.7 km/h 88 % 0 mm 0 W/m2
03:50 -12.4 °C -13.5 °C 34533.8 hPa East 18.2 km/h 44.1 km/h 88 % 0 mm 0 W/m2
03:55 -12.5 °C -13.4 °C 34533.8 hPa ENE 23.3 km/h 44.1 km/h 89 % 0 mm 0 W/m2
04:00 -12.6 °C -13.5 °C 34533.8 hPa NE 20.8 km/h 41.4 km/h 89 % 0 mm 0 W/m2
04:05 -12.6 °C -13.5 °C 34533.8 hPa ESE 18.2 km/h 41.4 km/h 89 % 0 mm 0 W/m2
04:10 -12.6 °C -13.6 °C 34533.8 hPa East 31.1 km/h 38.8 km/h 89 % 0 mm 0 W/m2
04:20 -12.7 °C -13.5 °C 34533.8 hPa ENE 28.5 km/h 41.4 km/h 90 % 0 mm 0 W/m2
04:25 -12.7 °C -13.6 °C 34533.8 hPa ENE 18.2 km/h 33.6 km/h 90 % 0 mm 0 W/m2
04:30 -12.7 °C -13.6 °C 34533.8 hPa ENE 33.6 km/h 33.6 km/h 90 % 0 mm 0 W/m2
04:35 -12.7 °C -13.6 °C 34520.3 hPa ENE 15.6 km/h 36.2 km/h 90 % 0 mm 0 W/m2
04:40 -12.7 °C -13.5 °C 34520.3 hPa ENE 18.2 km/h 36.2 km/h 91 % 0 mm 0 W/m2
04:45 -12.7 °C -13.5 °C 34520.3 hPa East 23.3 km/h 33.6 km/h 91 % 0 mm 0 W/m2
04:50 -12.7 °C -13.4 °C 34520.3 hPa ENE 20.8 km/h 33.6 km/h 91 % 0 mm 0 W/m2
04:55 -12.7 °C -13.4 °C 34520.3 hPa ENE 20.8 km/h 33.6 km/h 91 % 0 mm 0 W/m2
05:00 -12.7 °C -13.4 °C 34510.1 hPa East 18.2 km/h 31.1 km/h 91 % 0 mm 0 W/m2
05:05 -12.7 °C -13.4 °C 34510.1 hPa NNE 7.7 km/h 33.6 km/h 91 % 0 mm 0 W/m2
05:10 -12.7 °C -13.4 °C 34510.1 hPa East 20.8 km/h 36.2 km/h 91 % 0 mm 0 W/m2
05:15 -12.7 °C -13.5 °C 34510.1 hPa NE 18.2 km/h 36.2 km/h 91 % 0 mm 0 W/m2
05:20 -12.7 °C -13.5 °C 34496.6 hPa ENE 18.2 km/h 38.8 km/h 91 % 0 mm 0 W/m2
05:25 -12.7 °C -13.6 °C 34496.6 hPa NE 25.9 km/h 38.8 km/h 90 % 0 mm 0 W/m2
05:30 -12.7 °C -13.5 °C 34496.6 hPa ENE 15.6 km/h 33.6 km/h 91 % 0 mm 0 W/m2
05:35 -12.8 °C -13.6 °C 34496.6 hPa NE 10.3 km/h 33.6 km/h 91 % 0 mm 0 W/m2
05:40 -12.8 °C -13.6 °C 34496.6 hPa ENE 12.9 km/h 36.2 km/h 91 % 0 mm 0 W/m2
05:45 -12.8 °C -13.6 °C 34496.6 hPa East 18.2 km/h 41.4 km/h 91 % 0 mm 0 W/m2
05:50 -12.8 °C -13.6 °C 34486.4 hPa NE 23.3 km/h 41.4 km/h 91 % 0 mm 0 W/m2
05:55 -12.8 °C -13.7 °C 34486.4 hPa NE 15.6 km/h 33.6 km/h 90 % 0 mm 0 W/m2
06:00 -12.8 °C -13.6 °C 34486.4 hPa NE 15.6 km/h 41.4 km/h 91 % 0 mm 0 W/m2
06:05 -12.8 °C -13.6 °C 34486.4 hPa East 25.9 km/h 41.4 km/h 91 % 0 mm 0 W/m2
06:10 -12.9 °C -13.7 °C 34486.4 hPa East 41.4 km/h 41.4 km/h 91 % 0 mm 0 W/m2
06:15 -12.9 °C -13.7 °C 34486.4 hPa ENE 25.9 km/h 41.4 km/h 91 % 0 mm 0 W/m2
06:20 -12.9 °C -13.7 °C 34486.4 hPa ENE 38.8 km/h 41.4 km/h 91 % 0 mm 0 W/m2
06:25 -12.9 °C -13.7 °C 34486.4 hPa ESE 20.8 km/h 46.7 km/h 91 % 0 mm 0 W/m2
06:30 -12.9 °C -13.7 °C 34486.4 hPa NNE 10.3 km/h 46.7 km/h 91 % 0 mm 0 W/m2
06:35 -12.9 °C -13.7 °C 34486.4 hPa NE 7.7 km/h 46.7 km/h 91 % 0 mm 0 W/m2
06:40 -12.9 °C -13.7 °C 34486.4 hPa ENE 20.8 km/h 44.1 km/h 91 % 0 mm 0 W/m2
06:45 -12.9 °C -13.7 °C 34486.4 hPa ENE 36.2 km/h 44.1 km/h 91 % 0 mm 0 W/m2
06:50 -12.9 °C -13.7 °C 34486.4 hPa ENE 28.5 km/h 41.4 km/h 91 % 0 mm 0 W/m2
06:55 -12.9 °C -13.7 °C 34476.3 hPa NE 18.2 km/h 44.1 km/h 91 % 0 mm 0 W/m2
07:00 -12.9 °C -13.7 °C 34476.3 hPa ENE 20.8 km/h 44.1 km/h 91 % 0 mm 0 W/m2
07:05 -12.9 °C -13.8 °C 34476.3 hPa ENE 25.9 km/h 46.7 km/h 90 % 0 mm 0 W/m2
07:10 -12.9 °C -13.8 °C 34476.3 hPa East 28.5 km/h 46.7 km/h 90 % 0 mm 7 W/m2
07:15 -12.9 °C -13.7 °C 34476.3 hPa NE 23.3 km/h 38.8 km/h 91 % 0 mm 12 W/m2
07:20 -12.9 °C -13.7 °C 34476.3 hPa ENE 31.1 km/h 44.1 km/h 91 % 0 mm 16 W/m2
07:25 -12.9 °C -13.8 °C 34486.4 hPa NE 12.9 km/h 44.1 km/h 90 % 0 mm 18 W/m2
07:30 -12.9 °C -13.7 °C 34476.3 hPa East 28.5 km/h 44.1 km/h 91 % 0 mm 25 W/m2
07:35 -13 °C -13.8 °C 34476.3 hPa NE 28.5 km/h 41.4 km/h 91 % 0 mm 35 W/m2
07:40 -13 °C -13.8 °C 34476.3 hPa East 23.3 km/h 41.4 km/h 91 % 0 mm 42 W/m2
07:45 -13 °C -13.8 °C 34476.3 hPa ENE 25.9 km/h 44.1 km/h 91 % 0 mm 46 W/m2
07:50 -13 °C -13.8 °C 34476.3 hPa East 18.2 km/h 44.1 km/h 91 % 0 mm 47 W/m2
07:55 -12.9 °C -13.7 °C 34476.3 hPa East 18.2 km/h 38.8 km/h 91 % 0 mm 56 W/m2
08:00 -12.9 °C -13.7 °C 34476.3 hPa ENE 20.8 km/h 38.8 km/h 91 % 0 mm 65 W/m2
08:05 -12.9 °C -13.8 °C 34476.3 hPa ENE 12.9 km/h 38.8 km/h 90 % 0 mm 72 W/m2
08:10 -12.9 °C -13.7 °C 34486.4 hPa ENE 31.1 km/h 46.7 km/h 90 % 0 mm 67 W/m2
08:15 -12.8 °C -13.8 °C 34486.4 hPa ENE 7.7 km/h 51.8 km/h 89 % 0 mm 86 W/m2
08:20 -12.8 °C -13.7 °C 34486.4 hPa ENE 7.7 km/h 51.8 km/h 89 % 0 mm 120 W/m2
08:25 -12.7 °C -13.7 °C 34486.4 hPa NE 10.3 km/h 44.1 km/h 89 % 0 mm 148 W/m2
08:30 -12.6 °C -13.6 °C 34486.4 hPa NE 23.3 km/h 44.1 km/h 89 % 0 mm 167 W/m2
08:35 -12.6 °C -13.6 °C 34486.4 hPa ESE 20.8 km/h 49.2 km/h 88 % 0 mm 185 W/m2
08:40 -12.4 °C -13.6 °C 34486.4 hPa NE 36.2 km/h 49.2 km/h 87 % 0 mm 195 W/m2
08:45 -12.4 °C -13.5 °C 34486.4 hPa NE 23.3 km/h 49.2 km/h 87 % 0 mm 167 W/m2
08:50 -12.4 °C -13.6 °C 34486.4 hPa ENE 28.5 km/h 59.5 km/h 86 % 0 mm 146 W/m2
08:55 -12.4 °C -13.6 °C 34486.4 hPa ENE 18.2 km/h 59.5 km/h 86 % 0 mm 132 W/m2
09:00 -12.4 °C -13.7 °C 34486.4 hPa ENE 18.2 km/h 41.4 km/h 86 % 0 mm 130 W/m2
09:05 -12.4 °C -13.7 °C 34486.4 hPa ENE 12.9 km/h 54.4 km/h 86 % 0 mm 149 W/m2
09:10 -12.4 °C -13.6 °C 34486.4 hPa East 23.3 km/h 54.4 km/h 86 % 0 mm 200 W/m2
09:15 -12.3 °C -13.7 °C 34486.4 hPa East 33.6 km/h 62.1 km/h 85 % 0 mm 169 W/m2
09:20 -12.3 °C -13.7 °C 34486.4 hPa NE 12.9 km/h 62.1 km/h 85 % 0 mm 174 W/m2
09:25 -12.3 °C -13.7 °C 34476.3 hPa NE 25.9 km/h 57 km/h 85 % 0 mm 181 W/m2
09:30 -12.3 °C -13.6 °C 34462.7 hPa ENE 36.2 km/h 57 km/h 85 % 0 mm 197 W/m2
09:35 -12.2 °C -13.6 °C 34462.7 hPa East 20.8 km/h 51.8 km/h 85 % 0 mm 214 W/m2
09:40 -12.1 °C -13.4 °C 34462.7 hPa East 41.4 km/h 46.7 km/h 85 % 0 mm 274 W/m2
09:45 -12.1 °C -13.4 °C 34462.7 hPa NE 25.9 km/h 49.2 km/h 85 % 0 mm 343 W/m2
09:50 -11.8 °C -13.2 °C 34462.7 hPa ENE 20.8 km/h 49.2 km/h 84 % 0 mm 341 W/m2
09:55 -11.7 °C -13.4 °C 34476.3 hPa East 33.6 km/h 54.4 km/h 82 % 0 mm 388 W/m2
10:00 -11.6 °C -13.2 °C 34462.7 hPa East 28.5 km/h 54.4 km/h 83 % 0 mm 483 W/m2
10:05 -11.5 °C -13.1 °C 34476.3 hPa East 36.2 km/h 46.7 km/h 82 % 0 mm 475 W/m2
10:10 -11.3 °C -13.2 °C 34462.7 hPa East 44.1 km/h 54.4 km/h 80 % 0 mm 450 W/m2
10:15 -11.2 °C -13.1 °C 34452.6 hPa NNE 23.3 km/h 54.4 km/h 80 % 0 mm 512 W/m2
10:20 -11.1 °C -13.1 °C 34462.7 hPa ESE 41.4 km/h 54.4 km/h 79 % 0 mm 408 W/m2
10:25 -11.1 °C -13.2 °C 34452.6 hPa East 25.9 km/h 54.4 km/h 78 % 0 mm 476 W/m2
10:30 -11.3 °C -13.2 °C 34452.6 hPa ENE 36.2 km/h 64.7 km/h 79 % 0 mm 288 W/m2
10:35 -11.3 °C -13.3 °C 34452.6 hPa ENE 31.1 km/h 64.7 km/h 79 % 0 mm 288 W/m2
10:40 -11.3 °C -13.3 °C 34452.6 hPa ENE 31.1 km/h 59.5 km/h 79 % 0 mm 297 W/m2
10:45 -11.3 °C -13.2 °C 34442.4 hPa NE 7.7 km/h 59.5 km/h 79 % 0 mm 336 W/m2
10:50 -11.3 °C -13.3 °C 34442.4 hPa ENE 41.4 km/h 57 km/h 78 % 0 mm 276 W/m2
10:55 -11.3 °C -13.2 °C 34442.4 hPa NE 23.3 km/h 57 km/h 79 % 0 mm 294 W/m2
11:00 -11.2 °C -13.3 °C 34452.6 hPa ENE 12.9 km/h 46.7 km/h 78 % 0 mm 332 W/m2
11:05 -11.1 °C -13.2 °C 34452.6 hPa ENE 18.2 km/h 46.7 km/h 78 % 0 mm 475 W/m2
11:10 -10.8 °C -13 °C 34442.4 hPa ENE 20.8 km/h 46.7 km/h 77 % 0 mm 457 W/m2
11:15 -10.7 °C -12.9 °C 34442.4 hPa NE 12.9 km/h 54.4 km/h 77 % 0 mm 457 W/m2
11:20 -10.6 °C -12.7 °C 34428.8 hPa East 28.5 km/h 54.4 km/h 77 % 0 mm 464 W/m2
11:25 -10.3 °C -12.6 °C 34442.4 hPa East 41.4 km/h 49.2 km/h 76 % 0 mm 573 W/m2
11:30 -10.2 °C -12.6 °C 34428.8 hPa ENE 54.4 km/h 54.4 km/h 75 % 0 mm 552 W/m2
11:35 -10.3 °C -12.9 °C 34428.8 hPa NE 33.6 km/h 59.5 km/h 73 % 0 mm 520 W/m2
11:40 -10.3 °C -12.8 °C 34418.7 hPa East 33.6 km/h 59.5 km/h 74 % 0 mm 571 W/m2
11:45 -10.3 °C -13.1 °C 34418.7 hPa NE 15.6 km/h 59.5 km/h 72 % 0 mm 519 W/m2
11:50 -10.2 °C -12.8 °C 34418.7 hPa ENE 25.9 km/h 59.5 km/h 74 % 0 mm 494 W/m2
11:55 -10.2 °C -12.8 °C 34418.7 hPa NE 23.3 km/h 57 km/h 73 % 0 mm 276 W/m2
12:00 -10.4 °C -12.9 °C 34405.1 hPa ENE 36.2 km/h 54.4 km/h 74 % 0 mm 316 W/m2
12:05 -10.4 °C -13 °C 34405.1 hPa East 38.8 km/h 54.4 km/h 74 % 0 mm 274 W/m2
12:10 -10.5 °C -13 °C 34405.1 hPa ENE 18.2 km/h 59.5 km/h 74 % 0 mm 336 W/m2
12:15 -10.4 °C -12.8 °C 34395 hPa ENE 36.2 km/h 59.5 km/h 75 % 0 mm 385 W/m2
12:20 -10.2 °C -12.8 °C 34395 hPa NE 33.6 km/h 57 km/h 74 % 0 mm 439 W/m2
12:25 -10.2 °C -12.8 °C 34395 hPa NE 31.1 km/h 57 km/h 73 % 0 mm 313 W/m2
12:30 -10.1 °C -12.7 °C 34395 hPa East 25.9 km/h 44.1 km/h 74 % 0 mm 315 W/m2
12:35 -9.9 °C -12.5 °C 34395 hPa ESE 20.8 km/h 41.4 km/h 74 % 0 mm 643 W/m2
12:40 -9.8 °C -12.4 °C 34384.8 hPa East 23.3 km/h 49.2 km/h 73 % 0 mm 624 W/m2
12:45 -9.4 °C -12.4 °C 34384.8 hPa NE 18.2 km/h 51.8 km/h 70 % 0 mm 724 W/m2
12:50 -8.8 °C -12.2 °C 34371.3 hPa ENE 41.4 km/h 59.5 km/h 68 % 0 mm 749 W/m2
12:55 -8.9 °C -12.6 °C 34371.3 hPa ENE 25.9 km/h 59.5 km/h 65 % 0 mm 693 W/m2
13:00 -8.9 °C -12.4 °C 34371.3 hPa NE 41.4 km/h 57 km/h 66 % 0 mm 694 W/m2
13:05 -8.7 °C -12.4 °C 34361.1 hPa East 41.4 km/h 59.5 km/h 65 % 0 mm 643 W/m2
13:10 -8.7 °C -12.4 °C 34361.1 hPa ENE 38.8 km/h 67.3 km/h 65 % 0 mm 679 W/m2
13:15 -8.5 °C -11.8 °C 34361.1 hPa NE 25.9 km/h 67.3 km/h 68 % 0 mm 700 W/m2
13:20 -8.5 °C -12.6 °C 34361.1 hPa NE 31.1 km/h 59.5 km/h 62 % 0 mm 708 W/m2
13:25 -8.4 °C -12.5 °C 34361.1 hPa NE 33.6 km/h 77.7 km/h 62 % 0 mm 703 W/m2
13:30 -8.4 °C -12.7 °C 34347.6 hPa North 31.1 km/h 77.7 km/h 61 % 0 mm 701 W/m2
13:35 -8.2 °C -12.4 °C 34347.6 hPa NE 25.9 km/h 69.8 km/h 61 % 0 mm 700 W/m2
13:40 -8.2 °C -12.7 °C 34347.6 hPa ENE 25.9 km/h 57 km/h 59 % 0 mm 693 W/m2
13:45 -8.2 °C -12.7 °C 34347.6 hPa ENE 38.8 km/h 62.1 km/h 59 % 0 mm 693 W/m2
13:50 -8.3 °C -12.9 °C 34347.6 hPa ENE 38.8 km/h 62.1 km/h 58 % 0 mm 687 W/m2
13:55 -8.2 °C -12.8 °C 34347.6 hPa ENE 36.2 km/h 64.7 km/h 58 % 0 mm 679 W/m2
14:00 -8.1 °C -12.9 °C 34347.6 hPa NNE 28.5 km/h 64.7 km/h 57 % 0 mm 679 W/m2
14:05 -8 °C -12.7 °C 34337.4 hPa ENE 12.9 km/h 59.5 km/h 58 % 0 mm 673 W/m2
14:10 -7.9 °C -12.7 °C 34337.4 hPa ENE 54.4 km/h 59.5 km/h 57 % 0 mm 668 W/m2
14:15 -8 °C -12.8 °C 34337.4 hPa East 41.4 km/h 62.1 km/h 57 % 0 mm 666 W/m2
14:20 -7.9 °C -12.8 °C 34337.4 hPa ENE 46.7 km/h 62.1 km/h 56 % 0 mm 661 W/m2
14:25 -7.7 °C -12.4 °C 34337.4 hPa ESE 31.1 km/h 57 km/h 58 % 0 mm 657 W/m2
14:30 -7.7 °C -12.7 °C 34327.3 hPa ENE 28.5 km/h 67.3 km/h 56 % 0 mm 656 W/m2
14:35 -7.7 °C -13.2 °C 34327.3 hPa East 57 km/h 67.3 km/h 53 % 0 mm 649 W/m2
14:40 -7.9 °C -13.3 °C 34327.3 hPa East 41.4 km/h 67.3 km/h 53 % 0 mm 633 W/m2
14:45 -7.7 °C -12.8 °C 34327.3 hPa East 51.8 km/h 64.7 km/h 55 % 0 mm 635 W/m2
14:50 -7.7 °C -13.2 °C 34313.7 hPa ENE 44.1 km/h 57 km/h 53 % 0 mm 628 W/m2
14:55 -7.7 °C -13.1 °C 34313.7 hPa ENE 33.6 km/h 62.1 km/h 53 % 0 mm 619 W/m2
15:00 -7.7 °C -12.9 °C 34303.6 hPa ENE 23.3 km/h 62.1 km/h 54 % 0 mm 608 W/m2
15:05 -7.6 °C -12.8 °C 34303.6 hPa ENE 44.1 km/h 59.5 km/h 54 % 0 mm 601 W/m2
15:10 -7.6 °C -13 °C 34303.6 hPa ENE 57 km/h 69.8 km/h 53 % 0 mm 594 W/m2
15:15 -7.7 °C -13.3 °C 34303.6 hPa ENE 41.4 km/h 69.8 km/h 52 % 0 mm 589 W/m2
15:20 -7.7 °C -13.3 °C 34293.4 hPa NE 25.9 km/h 75.2 km/h 52 % 0 mm 577 W/m2
15:25 -7.6 °C -13.1 °C 34293.4 hPa East 33.6 km/h 75.2 km/h 53 % 0 mm 566 W/m2
15:30 -7.6 °C -13.2 °C 34303.6 hPa East 33.6 km/h 64.7 km/h 52 % 0 mm 559 W/m2
15:35 -7.6 °C -13.5 °C 34293.4 hPa NNE 18.2 km/h 59.5 km/h 50 % 0 mm 545 W/m2
15:40 -7.6 °C -13.1 °C 34293.4 hPa ENE 54.4 km/h 59.5 km/h 52 % 0 mm 534 W/m2
15:45 -7.6 °C -12.9 °C 34293.4 hPa East 25.9 km/h 59.5 km/h 53 % 0 mm 520 W/m2
15:50 -7.6 °C -13.3 °C 34293.4 hPa ENE 15.6 km/h 72.6 km/h 51 % 0 mm 508 W/m2
15:55 -7.6 °C -13.3 °C 34293.4 hPa ESE 28.5 km/h 72.6 km/h 51 % 0 mm 503 W/m2
16:00 -7.6 °C -13.5 °C 34293.4 hPa East 44.1 km/h 67.3 km/h 50 % 0 mm 490 W/m2
16:05 -7.6 °C -13.3 °C 34279.9 hPa ESE 33.6 km/h 67.3 km/h 51 % 0 mm 478 W/m2
16:10 -7.6 °C -13.5 °C 34279.9 hPa NE 23.3 km/h 62.1 km/h 50 % 0 mm 466 W/m2
16:15 -7.6 °C -13.3 °C 34293.4 hPa NE 33.6 km/h 62.1 km/h 51 % 0 mm 452 W/m2
16:20 -7.7 °C -13.4 °C 34293.4 hPa East 25.9 km/h 62.1 km/h 51 % 0 mm 441 W/m2
16:25 -7.7 °C -13.4 °C 34279.9 hPa ESE 41.4 km/h 67.3 km/h 51 % 0 mm 427 W/m2
16:30 -7.7 °C -13.4 °C 34279.9 hPa East 15.6 km/h 67.3 km/h 51 % 0 mm 415 W/m2
16:35 -7.6 °C -13.3 °C 34279.9 hPa ESE 36.2 km/h 64.7 km/h 51 % 0 mm 401 W/m2
16:40 -7.8 °C -13.3 °C 34279.9 hPa ENE 23.3 km/h 62.1 km/h 52 % 0 mm 190 W/m2
16:45 -7.7 °C -13.4 °C 34279.9 hPa East 23.3 km/h 62.1 km/h 51 % 0 mm 197 W/m2
16:50 -7.7 °C -13.1 °C 34279.9 hPa ESE 20.8 km/h 46.7 km/h 53 % 0 mm 142 W/m2
16:55 -7.8 °C -13.1 °C 34269.7 hPa East 15.6 km/h 46.7 km/h 54 % 0 mm 174 W/m2
17:00 -7.7 °C -13.1 °C 34269.7 hPa ENE 23.3 km/h 54.4 km/h 53 % 0 mm 153 W/m2
17:05 -7.8 °C -13.6 °C 34279.9 hPa ESE 31.1 km/h 59.5 km/h 51 % 0 mm 223 W/m2
17:10 -7.9 °C -13.3 °C 34269.7 hPa ENE 12.9 km/h 59.5 km/h 53 % 0 mm 276 W/m2
17:15 -7.7 °C -12.8 °C 34279.9 hPa NE 10.3 km/h 44.1 km/h 55 % 0 mm 265 W/m2
17:20 -7.9 °C -13.5 °C 34269.7 hPa East 15.6 km/h 59.5 km/h 52 % 0 mm 141 W/m2
17:25 -8.2 °C -13.7 °C 34269.7 hPa ENE 46.7 km/h 62.1 km/h 52 % 0 mm 137 W/m2
17:30 -8.2 °C -13.6 °C 34269.7 hPa ESE 20.8 km/h 62.1 km/h 53 % 0 mm 130 W/m2
17:35 -8.1 °C -13.3 °C 34269.7 hPa East 25.9 km/h 59.5 km/h 54 % 0 mm 132 W/m2
17:40 -8 °C -13.3 °C 34269.7 hPa East 23.3 km/h 44.1 km/h 54 % 0 mm 146 W/m2
17:45 -8 °C -13.1 °C 34269.7 hPa East 18.2 km/h 51.8 km/h 55 % 0 mm 123 W/m2
17:50 -8.1 °C -13.3 °C 34269.7 hPa SE 33.6 km/h 51.8 km/h 54 % 0 mm 79 W/m2
17:55 -8.2 °C -13.3 °C 34269.7 hPa ENE 12.9 km/h 49.2 km/h 55 % 0 mm 60 W/m2
18:00 -8.4 °C -13.4 °C 34279.9 hPa East 25.9 km/h 49.2 km/h 55 % 0 mm 62 W/m2
18:05 -8.4 °C -13.5 °C 34279.9 hPa East 12.9 km/h 57 km/h 55 % 0 mm 62 W/m2
18:10 -8.5 °C -13.4 °C 34279.9 hPa ESE 23.3 km/h 57 km/h 56 % 0 mm 62 W/m2
18:15 -8.6 °C -13.4 °C 34279.9 hPa ENE 20.8 km/h 46.7 km/h 56 % 0 mm 56 W/m2
18:20 -8.6 °C -13.3 °C 34279.9 hPa ENE 25.9 km/h 46.7 km/h 57 % 0 mm 63 W/m2
18:25 -8.7 °C -13.4 °C 34279.9 hPa ENE 31.1 km/h 38.8 km/h 57 % 0 mm 47 W/m2
18:30 -8.7 °C -13.3 °C 34279.9 hPa ESE 20.8 km/h 38.8 km/h 58 % 0 mm 42 W/m2
18:35 -8.8 °C -13.2 °C 34279.9 hPa ENE 12.9 km/h 36.2 km/h 60 % 0 mm 39 W/m2
18:40 -8.9 °C -13.2 °C 34279.9 hPa East 20.8 km/h 46.7 km/h 60 % 0 mm 35 W/m2
18:45 -8.9 °C -13.2 °C 34279.9 hPa East 33.6 km/h 46.7 km/h 60 % 0 mm 32 W/m2
18:50 -8.9 °C -13.3 °C 34279.9 hPa East 18.2 km/h 46.7 km/h 60 % 0 mm 28 W/m2
18:55 -9 °C -13.3 °C 34279.9 hPa East 23.3 km/h 38.8 km/h 60 % 0 mm 25 W/m2
19:00 -9.1 °C -13.4 °C 34279.9 hPa East 12.9 km/h 46.7 km/h 60 % 0 mm 21 W/m2
19:05 -9.2 °C -13.3 °C 34279.9 hPa East 20.8 km/h 46.7 km/h 61 % 0 mm 18 W/m2
19:10 -9.3 °C -13.3 °C 34279.9 hPa East 12.9 km/h 38.8 km/h 62 % 0 mm 14 W/m2
19:15 -9.4 °C -13.3 °C 34279.9 hPa East 20.8 km/h 33.6 km/h 63 % 0 mm 11 W/m2
19:20 -9.5 °C -13.2 °C 34293.4 hPa ENE 18.2 km/h 33.6 km/h 64 % 0 mm 7 W/m2
19:25 -9.6 °C -13.3 °C 34293.4 hPa East 18.2 km/h 28.5 km/h 64 % 0 mm 5 W/m2
19:30 -9.7 °C -13.3 °C 34293.4 hPa East 18.2 km/h 28.5 km/h 65 % 0 mm 0 W/m2
19:35 -9.8 °C -13.2 °C 34293.4 hPa East 12.9 km/h 28.5 km/h 66 % 0 mm 0 W/m2
19:40 -9.9 °C -13.3 °C 34293.4 hPa East 7.7 km/h 28.5 km/h 66 % 0 mm 0 W/m2
19:45 -9.9 °C -13.3 °C 34303.6 hPa SE 5.1 km/h 20.8 km/h 67 % 0 mm 0 W/m2
19:50 -10.1 °C -13.3 °C 34303.6 hPa ENE 10.3 km/h 23.3 km/h 68 % 0 mm 0 W/m2
19:55 -10.1 °C -13.3 °C 34303.6 hPa East 12.9 km/h 28.5 km/h 68 % 0 mm 0 W/m2
20:00 -10.1 °C -13.3 °C 34303.6 hPa ESE 15.6 km/h 28.5 km/h 68 % 0 mm 0 W/m2
20:05 -10.1 °C -13.3 °C 34303.6 hPa East 20.8 km/h 28.5 km/h 68 % 0 mm 0 W/m2
20:10 -10.1 °C -13.2 °C 34303.6 hPa East 15.6 km/h 28.5 km/h 69 % 0 mm 0 W/m2
20:15 -10.1 °C -13.3 °C 34313.7 hPa ESE 10.3 km/h 25.9 km/h 68 % 0 mm 0 W/m2
20:20 -10.2 °C -13.3 °C 34313.7 hPa East 18.2 km/h 23.3 km/h 69 % 0 mm 0 W/m2
20:25 -10.2 °C -13.3 °C 34313.7 hPa East 12.9 km/h 23.3 km/h 69 % 0 mm 0 W/m2
20:30 -10.3 °C -13.3 °C 34313.7 hPa ESE 10.3 km/h 23.3 km/h 70 % 0 mm 0 W/m2
20:35 -10.4 °C -13.4 °C 34327.3 hPa East 5.1 km/h 23.3 km/h 70 % 0 mm 0 W/m2
20:40 -10.5 °C -13.3 °C 34327.3 hPa ENE 5.1 km/h 23.3 km/h 71 % 0 mm 0 W/m2
20:45 -10.6 °C -13.4 °C 34327.3 hPa East 12.9 km/h 28.5 km/h 71 % 0 mm 0 W/m2
20:50 -10.5 °C -13.4 °C 34327.3 hPa East 7.7 km/h 28.5 km/h 71 % 0 mm 0 W/m2
20:55 -10.5 °C -13.4 °C 34327.3 hPa ESE 7.7 km/h 23.3 km/h 71 % 0 mm 0 W/m2
21:00 -10.6 °C -13.4 °C 34327.3 hPa East 2.6 km/h 20.8 km/h 71 % 0 mm 0 W/m2
21:05 -10.6 °C -13.4 °C 34327.3 hPa East 7.7 km/h 23.3 km/h 71 % 0 mm 0 W/m2
21:10 -10.6 °C -13.3 °C 34327.3 hPa East 25.9 km/h 25.9 km/h 72 % 0 mm 0 W/m2
21:15 -10.7 °C -13.4 °C 34327.3 hPa ENE 12.9 km/h 25.9 km/h 72 % 0 mm 0 W/m2
21:20 -10.8 °C -13.5 °C 34327.3 hPa East 15.6 km/h 25.9 km/h 72 % 0 mm 0 W/m2
21:25 -10.9 °C -13.6 °C 34327.3 hPa East 12.9 km/h 20.8 km/h 73 % 0 mm 0 W/m2
21:30 -11.1 °C -13.6 °C 34337.4 hPa East 15.6 km/h 20.8 km/h 74 % 0 mm 0 W/m2
21:35 -11.2 °C -13.6 °C 34337.4 hPa East 5.1 km/h 18.2 km/h 75 % 0 mm 0 W/m2
21:40 -11.2 °C -13.5 °C 34337.4 hPa East 12.9 km/h 20.8 km/h 76 % 0 mm 0 W/m2
21:45 -11.3 °C -13.6 °C 34337.4 hPa East 12.9 km/h 20.8 km/h 76 % 0 mm 0 W/m2
21:50 -11.3 °C -13.6 °C 34337.4 hPa East 10.3 km/h 20.8 km/h 76 % 0 mm 0 W/m2
21:55 -11.4 °C -13.6 °C 34337.4 hPa ENE 10.3 km/h 18.2 km/h 77 % 0 mm 0 W/m2
22:00 -11.4 °C -13.6 °C 34337.4 hPa East 12.9 km/h 20.8 km/h 77 % 0 mm 0 W/m2
22:05 -11.5 °C -13.7 °C 34337.4 hPa ENE 10.3 km/h 20.8 km/h 77 % 0 mm 0 W/m2
22:10 -11.6 °C -13.7 °C 34337.4 hPa ENE 10.3 km/h 18.2 km/h 78 % 0 mm 0 W/m2
22:15 -11.6 °C -13.7 °C 34347.6 hPa ENE 18.2 km/h 20.8 km/h 78 % 0 mm 0 W/m2
22:20 -11.7 °C -13.7 °C 34347.6 hPa ENE 12.9 km/h 20.8 km/h 78 % 0 mm 0 W/m2
22:25 -11.7 °C -13.8 °C 34347.6 hPa ENE 5.1 km/h 20.8 km/h 78 % 0 mm 0 W/m2
22:30 -11.8 °C -13.7 °C 34347.6 hPa ESE 18.2 km/h 23.3 km/h 79 % 0 mm 0 W/m2
22:35 -11.7 °C -13.7 °C 34347.6 hPa ENE 18.2 km/h 23.3 km/h 78 % 0 mm 0 W/m2
22:40 -11.7 °C -13.7 °C 34347.6 hPa East 12.9 km/h 20.8 km/h 78 % 0 mm 0 W/m2
22:45 -11.7 °C -13.7 °C 34347.6 hPa ENE 12.9 km/h 20.8 km/h 78 % 0 mm 0 W/m2
22:50 -11.8 °C -13.8 °C 34347.6 hPa East 7.7 km/h 20.8 km/h 78 % 0 mm 0 W/m2
22:55 -11.8 °C -13.7 °C 34347.6 hPa East 5.1 km/h 20.8 km/h 79 % 0 mm 0 W/m2
23:00 -11.8 °C -13.7 °C 34347.6 hPa ESE 7.7 km/h 20.8 km/h 79 % 0 mm 0 W/m2
23:05 -11.8 °C -13.8 °C 34347.6 hPa ESE 2.6 km/h 18.2 km/h 79 % 0 mm 0 W/m2
23:10 -11.8 °C -13.8 °C 34347.6 hPa East 2.6 km/h 18.2 km/h 79 % 0 mm 0 W/m2
23:15 -11.8 °C -13.6 °C 34361.1 hPa East 7.7 km/h 18.2 km/h 80 % 0 mm 0 W/m2
23:20 -11.8 °C -13.7 °C 34361.1 hPa ESE 7.7 km/h 18.2 km/h 79 % 0 mm 0 W/m2
23:25 -11.8 °C -13.7 °C 34361.1 hPa ESE 7.7 km/h 18.2 km/h 79 % 0 mm 0 W/m2
23:30 -11.9 °C -13.7 °C 34361.1 hPa East 7.7 km/h 15.6 km/h 80 % 0 mm 0 W/m2
23:35 -12 °C -13.8 °C 34361.1 hPa ENE 7.7 km/h 12.9 km/h 80 % 0 mm 0 W/m2
23:40 -12.1 °C -13.8 °C 34361.1 hPa ENE 7.7 km/h 12.9 km/h 81 % 0 mm 0 W/m2
23:45 -12.3 °C -13.9 °C 34347.6 hPa ENE 7.7 km/h 12.9 km/h 82 % 0 mm 0 W/m2
23:50 -12.4 °C -13.9 °C 34347.6 hPa ENE 5.1 km/h 12.9 km/h 83 % 0 mm 0 W/m2
23:55 -12.4 °C -14 °C 34347.6 hPa Calm   15.6 km/h 82 % 0 mm 0 W/m2
Avec l'autorisation de Weather Underground - 1.75 mb